QPF
0.00 0.00 0.00 0.00 0.00 0.00 0.00 0.00 0.00 0.00 0.00 0.00 0.00 0.00 0.00 0.00 0.00 0.07 0.19 0.03 0.04 0.11 0.10 0.04 0.08 0.05 0.02 0.00 0.00 0.00 0.00 0.00 0.00 0.00 0.00 0.00 0.00 0.00 0.00 0.00 0.00 0.00 0.00
0.00 0.00 0.00 0.00 0.00 0.00 0.00 0.00 0.00 0.00 0.00 0.00 0.00 0.00 0.00 0.00 0.04 0.10 0.05 0.04 0.20 0.09 0.05 0.03 0.02 0.02 0.01 0.00 0.00 0.00 0.00 0.00 0.00 0.00 0.00 0.00 0.00 0.00 0.00 0.00 0.00 0.00 0.00
0.00 0.00 0.00 0.00 0.00 0.00 0.00 0.00 0.00 0.00 0.00 0.00 0.00 0.00 0.00 0.00 0.08 0.08 0.12 0.11 0.06 0.04 0.02 0.00 0.02 0.01 0.00 0.01 0.00 0.00 0.00 0.00 0.00 0.00 0.00 0.00 0.00 0.00 0.00 0.00 0.00 0.00 0.00
0.00 0.00 0.00 0.00 0.00 0.00 0.00 0.00 0.00 0.00 0.00 0.00 0.00 0.00 0.00 0.10 0.29 0.23 0.09 0.11 0.02 0.00 0.00 0.03 0.03 0.00 0.00 0.00 0.00 0.00 0.00 0.00 0.00 0.00 0.00 0.00 0.00 0.00 0.00 0.00 0.00 0.00 0.00
0.00 0.00 0.00 0.00 0.00 0.00 0.00 0.00 0.00 0.00 0.00 0.00 0.00 0.00 0.15 0.49 0.56 0.10 0.18 0.09 0.00 0.00 0.01 0.01 0.00 0.00 0.00 0.00 0.00 0.00 0.00 0.00 0.00 0.00 0.00 0.00 0.00 0.00 0.00 0.00 0.00 0.00 0.00
0.00 0.00 0.00 0.00 0.00 0.00 0.00 0.00 0.00 0.00 0.00 0.00 0.00 0.07 0.52 0.41 0.20 0.08 0.05 0.01 0.00 0.01 0.01 0.00 0.00 0.00 0.00 0.00 0.00 0.00 0.00 0.00 0.00 0.00 0.00 0.00 0.00 0.00 0.00 0.00 0.00 0.00 0.00
0.00 0.00 0.00 0.00 0.00 0.00 0.00 0.00 0.00 0.00 0.00 0.00 0.09 0.23 0.27 0.06 0.07 0.06 0.01 0.00 0.00 0.00 0.00 0.00 0.00 0.00 0.00 0.00 0.00 0.00 0.00 0.00 0.00 0.00 0.00 0.00 0.00 0.00 0.00 0.00 0.00 0.00 0.00
0.00 0.00 0.00 0.00 0.00 0.00 0.00 0.00 0.00 0.00 0.02 0.06 0.11 0.14 0.03 0.01 0.00 0.04 0.00 0.00 0.00 0.00 0.00 0.00 0.00 0.00 0.00 0.00 0.00 0.00 0.00 0.00 0.00 0.00 0.00 0.00 0.00 0.00 0.00 0.00 0.00 0.00 0.00
0.00 0.00 0.00 0.00 0.00 0.00 0.00 0.00 0.00 0.00 0.04 0.08 0.09 0.02 0.00 0.01 0.01 0.00 0.00 0.00 0.00 0.00 0.00 0.00 0.00 0.00 0.00 0.00 0.00 0.00 0.00 0.00 0.00 0.00 0.00 0.00 0.00 0.00 0.00 0.00 0.00 0.00 0.00
0.00 0.00 0.00 0.00 0.00 0.00 0.00 0.00 0.00 0.00 0.02 0.04 0.05 0.00 0.00 0.00 0.00 0.00 0.00 0.00 0.00 0.00 0.00 0.00 0.00 0.00 0.00 0.00 0.00 0.00 0.00 0.00 0.00 0.00 0.00 0.00 0.00 0.00 0.00 0.00 0.00 0.00 0.00
0.00 0.00 0.00 0.00 0.00 0.00 0.00 0.00 0.00 0.00 0.01 0.04 0.02 0.01 0.00 0.00 0.00 0.00 0.00 0.00 0.00 0.00 0.00 0.00 0.00 0.00 0.00 0.00 0.00 0.00 0.00 0.00 0.00 0.00 0.00 0.00 0.00 0.00 0.00 0.00 0.00 0.00 0.00
0.00 0.00 0.00 0.00 0.00 0.00 0.00 0.00 0.00 0.00 0.00 0.00 0.01 0.00 0.00 0.00 0.00 0.00 0.00 0.00 0.00 0.00 0.00 0.00 0.00 0.00 0.00 0.00 0.00 0.00 0.00 0.00 0.00 0.00 0.00 0.00 0.00 0.00 0.00 0.00 0.00 0.00 0.00
0.00 0.00 0.00 0.00 0.00 0.00 0.00 0.00 0.00 0.02 0.01 0.00 0.00 0.00 0.00 0.00 0.00 0.00 0.00 0.00 0.00 0.00 0.00 0.00 0.00 0.00 0.00 0.00 0.00 0.00 0.00 0.00 0.00 0.00 0.00 0.00 0.00 0.00 0.00 0.00 0.00 0.00 0.00
0.00 0.00 0.00 0.00 0.00 0.00 0.00 0.01 0.02 0.02 0.01 0.00 0.00 0.00 0.00 0.00 0.00 0.00 0.00 0.00 0.00 0.00 0.00 0.00 0.00 0.00 0.00 0.00 0.00 0.00 0.00 0.00 0.00 0.00 0.00 0.00 0.00 0.00 0.00 0.00 0.00 0.00 0.00
0.00 0.00 0.00 0.00 0.00 0.00 0.00 0.00 0.00 0.00 0.00 0.00 0.00 0.00 0.00 0.00 0.00 0.00 0.00 0.00 0.00 0.00 0.00 0.00 0.00 0.00 0.00 0.00 0.00 0.00 0.00 0.00 0.00 0.00 0.00 0.00 0.00 0.00 0.00 0.00 0.00 0.00 0.00
0.00 0.00 0.00 0.00 0.00 0.00 0.00 0.00 0.00 0.00 0.00 0.00 0.00 0.00 0.00 0.00 0.00 0.00 0.00 0.00 0.00 0.00 0.00 0.00 0.00 0.00 0.00 0.00 0.00 0.00 0.00 0.00 0.00 0.00 0.00 0.00 0.00 0.00 0.00 0.00 0.00 0.00 0.00
0.00 0.00 0.00 0.00 0.00 0.00 0.00 0.00 0.00 0.00 0.00 0.00 0.00 0.00 0.00 0.00 0.00 0.00 0.00 0.00 0.00 0.00 0.00 0.00 0.00 0.00 0.00 0.00 0.00 0.00 0.00 0.00 0.00 0.00 0.00 0.00 0.00 0.00 0.00 0.00 0.00 0.00 0.00
0.00 0.00 0.00 0.00 0.00 0.00 0.00 0.00 0.00 0.00 0.00 0.00 0.00 0.00 0.00 0.00 0.00 0.00 0.00 0.00 0.00 0.00 0.00 0.00 0.00 0.00 0.00 0.00 0.00 0.00 0.00 0.00 0.00 0.00 0.00 0.00 0.00 0.00 0.00 0.00 0.00 0.00 0.00
0.00 0.00 0.00 0.00 0.00 0.00 0.00 0.00 0.00 0.00 0.00 0.00 0.00 0.00 0.00 0.00 0.00 0.00 0.00 0.00 0.00 0.00 0.00 0.00 0.00 0.00 0.00 0.00 0.00 0.00 0.00 0.00 0.00 0.00 0.00 0.00 0.00 0.00 0.00 0.00 0.00 0.00 0.00
0.00 0.00 0.00 0.00 0.00 0.00 0.00 0.00 0.00 0.00 0.00 0.00 0.00 0.00 0.00 0.00 0.00 0.00 0.00 0.00 0.00 0.00 0.00 0.00 0.00 0.00 0.00 0.00 0.00 0.00 0.00 0.00 0.00 0.00 0.00 0.00 0.00 0.00 0.00 0.00 0.00 0.00 0.00
0.00 0.00 0.00 0.00 0.00 0.00 0.00 0.00 0.00 0.00 0.00 0.00 0.00 0.00 0.00 0.00 0.00 0.00 0.00 0.00 0.00 0.00 0.00 0.00 0.00 0.00 0.00 0.00 0.00 0.00 0.00 0.00 0.00 0.00 0.00 0.00 0.00 0.00 0.00 0.00 0.00 0.00 0.00
0.00 0.00 0.00 0.00 0.00 0.00 0.00 0.00 0.00 0.00 0.00 0.00 0.00 0.00 0.00 0.00 0.00 0.00 0.00 0.00 0.00 0.00 0.00 0.00 0.00 0.00 0.00 0.00 0.00 0.00 0.00 0.00 0.00 0.00 0.00 0.00 0.00 0.00 0.00 0.00 0.00 0.00 0.00
0.00 0.00 0.00 0.00 0.00 0.00 0.00 0.00 0.00 0.00 0.00 0.00 0.00 0.00 0.00 0.00 0.00 0.00 0.00 0.00 0.00 0.00 0.00 0.00 0.00 0.00 0.00 0.00 0.00 0.00 0.00 0.00 0.00 0.00 0.00 0.00 0.00 0.00 0.00 0.00 0.00 0.00 0.00
0.00 0.00 0.00 0.00 0.00 0.00 0.00 0.00 0.00 0.00 0.00 0.00 0.00 0.00 0.00 0.00 0.00 0.00 0.00 0.00 0.00 0.00 0.00 0.00 0.00 0.00 0.00 0.00 0.00 0.00 0.00 0.00 0.00 0.00 0.00 0.00 0.00 0.00 0.00 0.00 0.00 0.00 0.00
0.00 0.00 0.00 0.00 0.00 0.00 0.00 0.00 0.00 0.00 0.00 0.00 0.00 0.00 0.00 0.00 0.00 0.00 0.00 0.00 0.00 0.00 0.00 0.00 0.00 0.00 0.00 0.00 0.00 0.00 0.00 0.00 0.00 0.00 0.00 0.00 0.00 0.00 0.00 0.00 0.00 0.00 0.00
0.00 0.00 0.00 0.00 0.00 0.00 0.00 0.00 0.00 0.00 0.00 0.00 0.00 0.00 0.00 0.00 0.00 0.00 0.00 0.00 0.00 0.00 0.00 0.00 0.00 0.00 0.00 0.00 0.00 0.00 0.00 0.00 0.00 0.00 0.00 0.00 0.00 0.00 0.00 0.00 0.00 0.00 0.00
MSLP
1008.28 1008.74 1009.27 1009.71 1010.22 1010.60 1010.81 1011.02 1011.50 1012.01 1012.38 1012.69 1013.19 1013.36 1013.42 1013.36 1013.51 1014.08 1014.41 1015.16 1015.41 1015.43 1015.35 1015.57 1016.17 1016.64 1017.27 1017.52 1017.79 1018.24 1018.49 1018.45 1017.98 1016.62 1016.55 1015.86 1015.58 1014.87 1014.24 1013.68 1013.02 1012.38 1011.56
1007.00 1007.81 1008.27 1008.86 1009.42 1009.81 1010.06 1010.39 1010.94 1011.32 1011.50 1012.04 1012.36 1012.52 1012.64 1012.34 1012.56 1012.99 1013.84 1013.82 1015.05 1015.04 1015.16 1015.74 1015.95 1016.44 1017.16 1017.62 1017.85 1018.02 1018.16 1018.18 1017.95 1016.96 1016.34 1016.00 1015.37 1014.60 1014.08 1013.34 1012.48 1011.78 1010.96
1006.42 1006.98 1007.62 1008.24 1008.71 1008.82 1009.13 1009.63 1010.24 1010.61 1010.84 1011.33 1011.55 1011.72 1011.62 1011.70 1012.02 1013.02 1013.42 1013.38 1014.28 1014.65 1015.28 1015.60 1016.10 1016.51 1016.82 1017.58 1017.85 1017.82 1017.76 1017.68 1017.64 1017.41 1016.61 1016.11 1015.18 1014.42 1013.58 1013.02 1012.13 1011.05 1010.04
1005.65 1006.36 1006.89 1007.16 1007.30 1007.68 1008.29 1008.88 1009.30 1009.59 1010.22 1010.46 1010.56 1010.76 1011.13 1011.40 1011.01 1012.00 1013.08 1012.82 1013.16 1014.46 1015.35 1015.80 1016.26 1016.61 1017.02 1017.37 1017.62 1017.70 1017.62 1017.40 1017.44 1017.06 1016.64 1015.98 1015.33 1014.24 1013.86 1012.78 1011.39 1010.50 1009.20
1005.14 1005.66 1005.97 1006.27 1006.69 1007.35 1007.82 1008.18 1008.47 1009.11 1009.44 1009.59 1009.86 1010.45 1010.75 1010.52 1009.10 1012.53 1012.86 1012.56 1013.57 1014.57 1015.40 1015.97 1016.53 1016.92 1017.24 1017.64 1017.65 1017.63 1017.52 1017.39 1017.16 1016.88 1016.45 1016.00 1015.18 1014.32 1013.72 1012.93 1012.06 1010.46 1008.85
1004.28 1004.68 1005.28 1005.73 1006.08 1006.42 1006.89 1007.39 1007.93 1008.40 1008.77 1009.02 1009.66 1010.12 1011.07 1011.23 1011.29 1012.92 1012.71 1013.22 1014.11 1014.88 1016.04 1016.46 1016.69 1017.02 1017.55 1017.73 1017.73 1017.57 1017.48 1017.29 1017.01 1016.93 1016.55 1016.08 1015.42 1014.86 1014.11 1013.16 1012.06 1010.61 1009.11
1003.68 1004.14 1004.60 1005.12 1005.72 1006.14 1006.52 1006.87 1007.24 1007.64 1008.27 1008.77 1009.58 1010.26 1010.80 1011.44 1011.36 1012.02 1013.17 1013.85 1014.69 1015.21 1016.00 1016.40 1016.87 1017.42 1017.63 1017.74 1017.66 1017.49 1017.32 1017.19 1016.99 1016.90 1016.66 1016.21 1015.69 1014.93 1014.34 1013.10 1012.09 1011.39 1010.33
1003.12 1003.52 1004.04 1004.61 1005.20 1005.83 1006.35 1006.86 1007.26 1007.48 1008.02 1008.91 1009.57 1010.16 1010.75 1011.40 1011.81 1012.85 1013.51 1014.24 1014.71 1015.44 1016.06 1016.44 1017.05 1017.59 1017.72 1017.72 1017.65 1017.42 1017.28 1016.98 1016.86 1016.78 1016.56 1015.92 1015.56 1014.88 1014.33 1013.69 1012.55 1011.46 1010.32
1002.90 1003.47 1003.98 1004.48 1005.17 1005.70 1006.21 1006.79 1007.22 1007.72 1008.26 1009.14 1009.69 1010.09 1010.93 1011.99 1012.33 1013.06 1013.72 1014.46 1015.16 1015.96 1016.38 1016.70 1017.24 1017.70 1017.86 1017.86 1017.76 1017.69 1017.50 1017.08 1016.74 1016.52 1016.08 1015.49 1015.00 1014.39 1013.91 1013.28 1012.08 1011.43 1009.96
1002.89 1003.42 1003.78 1004.24 1004.85 1005.40 1005.98 1006.66 1007.34 1007.90 1008.57 1009.34 1009.98 1010.62 1011.27 1012.15 1012.75 1013.24 1013.88 1014.78 1015.54 1016.35 1016.79 1017.21 1017.57 1017.69 1017.88 1018.04 1018.08 1018.01 1017.76 1017.51 1017.24 1016.51 1015.93 1015.21 1014.85 1014.26 1013.73 1013.65 1013.11 1012.35 1011.33
1002.65 1003.01 1003.47 1004.05 1004.65 1005.20 1005.86 1006.55 1007.45 1008.35 1009.19 1010.11 1010.62 1011.64 1012.05 1012.39 1013.44 1013.71 1014.21 1014.87 1015.68 1016.51 1017.05 1017.54 1017.82 1017.85 1018.10 1018.22 1018.27 1018.34 1018.35 1017.98 1017.41 1016.89 1016.28 1015.70 1015.17 1014.51 1014.02 1013.60 1013.34 1012.92 1012.42
1003.15 1003.68 1004.18 1004.50 1004.82 1005.31 1006.14 1006.99 1007.80 1008.82 1009.95 1010.88 1011.50 1012.27 1012.90 1013.32 1013.68 1014.23 1014.59 1015.07 1015.94 1016.45 1017.08 1017.74 1018.14 1018.33 1018.41 1018.50 1018.55 1018.48 1018.31 1018.08 1017.68 1017.09 1016.58 1016.25 1015.80 1015.20 1014.55 1014.02 1013.66 1013.16 1012.84
1003.68 1004.47 1005.08 1005.37 1005.63 1005.88 1006.55 1007.64 1008.62 1009.62 1010.47 1011.18 1011.90 1012.77 1013.73 1014.22 1014.51 1014.77 1015.18 1015.84 1016.31 1016.77 1017.33 1017.81 1018.07 1018.32 1018.68 1018.78 1018.84 1018.86 1018.68 1018.52 1017.98 1017.55 1017.23 1016.85 1016.49 1015.83 1014.98 1014.23 1013.66 1013.39 1013.10
1004.10 1004.71 1005.42 1006.04 1006.68 1007.03 1007.73 1008.58 1009.33 1010.19 1011.00 1011.54 1012.39 1013.39 1014.16 1014.59 1015.16 1015.54 1016.02 1016.41 1016.76 1017.34 1017.84 1018.24 1018.48 1018.74 1018.88 1019.28 1019.28 1019.13 1019.18 1018.90 1018.60 1018.24 1017.81 1017.26 1016.58 1016.02 1015.52 1015.20 1014.76 1014.22 1013.72
1004.60 1005.54 1006.34 1007.05 1007.66 1008.40 1009.38 1010.12 1010.37 1010.75 1010.57 1011.35 1012.48 1013.22 1014.04 1015.00 1015.44 1015.55 1016.11 1016.74 1017.12 1017.53 1017.94 1018.38 1018.83 1019.06 1019.22 1019.42 1019.66 1019.67 1019.47 1019.05 1018.90 1018.70 1018.10 1017.53 1017.05 1016.59 1016.19 1015.86 1015.52 1015.16 1014.84
1005.24 1006.22 1007.08 1007.75 1008.40 1008.96 1009.90 1010.90 1011.50 1011.43 1011.41 1011.79 1012.35 1012.84 1014.09 1014.52 1015.31 1015.86 1016.20 1016.75 1017.25 1017.65 1018.05 1018.54 1019.04 1019.41 1019.62 1019.66 1019.93 1019.81 1019.72 1019.63 1019.46 1019.16 1018.59 1018.08 1017.61 1017.23 1016.82 1016.51 1016.30 1016.02 1015.93
1005.31 1006.39 1007.33 1008.00 1008.69 1009.29 1010.13 1010.81 1011.80 1012.88 1012.72 1012.98 1013.29 1013.63 1013.84 1014.66 1015.64 1016.19 1016.52 1017.14 1017.57 1017.68 1018.24 1018.81 1019.29 1019.58 1019.85 1020.26 1020.30 1020.10 1020.14 1020.18 1019.92 1019.50 1019.10 1018.62 1018.10 1017.78 1017.47 1017.33 1017.10 1016.88 1016.78
1005.72 1006.55 1007.39 1008.25 1008.91 1009.65 1010.28 1010.88 1011.41 1012.04 1012.94 1014.04 1014.49 1014.73 1014.82 1015.10 1015.81 1016.41 1016.80 1017.25 1017.84 1018.29 1018.57 1019.10 1019.53 1019.82 1020.13 1020.18 1020.45 1020.56 1020.35 1020.29 1020.09 1019.90 1019.50 1019.14 1018.73 1018.42 1018.16 1018.02 1017.86 1017.77 1017.62
1005.95 1006.81 1007.68 1008.40 1009.11 1009.82 1010.44 1010.99 1011.52 1012.25 1013.16 1014.16 1015.04 1015.68 1016.02 1015.84 1016.40 1016.79 1016.80 1017.20 1017.88 1018.48 1018.84 1019.32 1019.74 1019.97 1020.23 1020.54 1020.66 1020.89 1020.68 1020.67 1020.58 1020.30 1020.00 1019.60 1019.26 1018.92 1018.78 1018.63 1018.50 1018.46 1018.34
1006.58 1007.16 1007.88 1008.67 1009.48 1010.15 1010.64 1011.13 1011.85 1012.57 1013.28 1013.93 1014.61 1015.42 1016.00 1016.05 1016.44 1016.94 1017.35 1017.71 1018.10 1018.50 1019.10 1019.49 1019.96 1020.30 1020.41 1020.55 1020.88 1021.01 1020.94 1020.88 1020.81 1020.60 1020.34 1020.00 1019.70 1019.48 1019.27 1019.10 1019.00 1019.01 1019.17
1006.86 1007.60 1008.13 1009.02 1009.64 1010.13 1010.62 1011.17 1011.86 1012.49 1013.17 1013.83 1014.45 1015.04 1015.27 1015.41 1016.22 1016.74 1017.35 1017.95 1018.21 1018.79 1019.24 1019.62 1020.11 1020.50 1020.72 1020.99 1020.93 1020.96 1021.02 1021.01 1021.05 1020.92 1020.66 1020.31 1020.08 1019.81 1019.80 1019.67 1019.56 1019.63 1019.76
1007.04 1007.85 1008.44 1008.98 1009.62 1010.25 1010.86 1011.34 1011.88 1012.53 1013.22 1013.84 1014.67 1015.27 1015.38 1015.86 1016.45 1016.98 1017.48 1017.96 1018.47 1018.84 1019.26 1019.72 1020.14 1020.51 1020.57 1020.68 1021.16 1021.18 1021.18 1021.19 1021.19 1021.06 1020.78 1020.57 1020.36 1020.26 1020.22 1020.13 1020.06 1020.18 1020.37
1007.01 1007.85 1008.61 1009.26 1009.76 1010.34 1011.04 1011.68 1012.18 1012.72 1013.27 1013.90 1014.54 1015.18 1015.57 1015.98 1016.59 1017.07 1017.52 1018.04 1018.51 1019.06 1019.75 1019.96 1020.34 1020.88 1021.18 1021.19 1021.25 1021.33 1021.19 1021.38 1021.43 1021.30 1021.00 1020.73 1020.60 1020.56 1020.63 1020.66 1020.67 1020.76 1021.08
1006.84 1007.49 1008.30 1009.22 1009.98 1010.61 1011.17 1011.78 1012.34 1012.81 1013.31 1013.94 1014.57 1014.97 1015.62 1016.14 1016.52 1017.18 1017.68 1018.22 1018.64 1019.40 1019.89 1020.24 1020.64 1020.86 1021.26 1021.56 1021.64 1021.68 1021.79 1021.66 1021.62 1021.43 1021.24 1020.87 1020.85 1020.92 1021.04 1021.17 1021.38 1021.58 1021.77
1006.72 1007.30 1007.91 1008.67 1009.68 1010.39 1011.18 1011.82 1012.14 1012.58 1013.29 1013.83 1014.48 1014.91 1015.57 1016.23 1016.65 1017.13 1017.76 1018.44 1019.00 1019.42 1020.14 1020.62 1020.82 1021.18 1021.40 1021.40 1021.46 1021.56 1021.88 1021.96 1021.75 1021.66 1021.22 1021.04 1021.08 1021.26 1021.44 1021.70 1022.01 1022.30 1022.50
1006.65 1007.06 1007.60 1008.22 1008.72 1009.59 1010.30 1011.24 1011.97 1012.30 1013.09 1013.75 1014.36 1014.84 1015.39 1015.84 1016.56 1017.19 1017.97 1018.59 1019.08 1019.71 1020.27 1020.75 1021.08 1021.31 1021.38 1021.57 1021.57 1021.80 1021.65 1021.74 1021.71 1021.63 1021.22 1021.18 1021.29 1021.57 1021.83 1022.16 1022.50 1022.76 1023.10
Thickness
5851 5848 5844 5841 5837 5835 5832 5830 5825 5820 5815 5810 5802 5796 5792 5789 5786 5774 5767 5757 5750 5740 5734 5724 5709 5698 5684 5674 5666 5654 5644 5639 5636 5644 5635 5632 5628 5627 5623 5617 5611 5605 5603
5860 5854 5850 5846 5842 5838 5836 5833 5828 5822 5821 5813 5805 5799 5793 5792 5786 5778 5765 5760 5745 5738 5735 5719 5708 5697 5683 5668 5656 5648 5642 5636 5632 5635 5631 5626 5623 5621 5616 5612 5607 5600 5598
5864 5860 5855 5850 5846 5844 5841 5837 5831 5826 5823 5815 5808 5801 5797 5792 5784 5767 5761 5759 5747 5740 5727 5714 5703 5692 5677 5662 5654 5648 5643 5637 5630 5623 5623 5618 5618 5615 5613 5607 5603 5601 5600
5870 5864 5858 5856 5854 5852 5847 5840 5835 5831 5824 5819 5814 5805 5797 5787 5768 5764 5761 5760 5752 5734 5715 5705 5694 5683 5672 5662 5653 5646 5640 5633 5625 5620 5616 5613 5610 5610 5603 5603 5606 5599 5603
5871 5866 5864 5860 5856 5850 5845 5842 5838 5831 5827 5823 5816 5802 5791 5766 5754 5765 5757 5757 5744 5726 5713 5700 5687 5675 5666 5656 5649 5642 5635 5628 5623 5617 5613 5608 5608 5606 5600 5594 5589 5595 5601
5876 5871 5867 5861 5857 5853 5848 5843 5836 5832 5827 5823 5812 5802 5786 5782 5774 5756 5757 5751 5736 5719 5701 5690 5680 5671 5661 5651 5643 5637 5629 5623 5618 5611 5607 5604 5601 5597 5591 5586 5585 5591 5597
5876 5874 5868 5863 5856 5851 5847 5842 5836 5830 5824 5818 5809 5801 5792 5782 5776 5767 5753 5742 5725 5713 5698 5687 5675 5664 5654 5645 5639 5631 5624 5618 5614 5607 5601 5598 5594 5593 5586 5586 5583 5582 5585
5875 5872 5868 5864 5856 5850 5843 5836 5829 5824 5819 5810 5802 5794 5787 5779 5769 5756 5745 5733 5721 5706 5694 5683 5669 5657 5649 5641 5633 5625 5619 5614 5607 5601 5597 5596 5591 5589 5582 5576 5574 5580 5585
5870 5864 5862 5857 5849 5843 5837 5829 5822 5816 5809 5800 5795 5789 5779 5767 5760 5749 5739 5725 5711 5696 5685 5675 5663 5652 5642 5634 5626 5618 5612 5608 5604 5599 5598 5596 5593 5591 5587 5582 5582 5582 5590
5863 5858 5856 5852 5845 5839 5833 5823 5814 5808 5801 5794 5786 5779 5770 5760 5750 5741 5730 5715 5700 5687 5676 5666 5656 5646 5635 5626 5619 5612 5607 5602 5596 5596 5595 5595 5593 5591 5588 5578 5573 5575 5579
5859 5856 5852 5847 5840 5832 5824 5815 5806 5798 5788 5778 5772 5763 5758 5752 5738 5729 5719 5708 5693 5679 5668 5658 5648 5638 5628 5620 5612 5605 5598 5594 5593 5591 5591 5592 5591 5589 5587 5582 5574 5572 5570
5848 5843 5837 5834 5829 5822 5812 5804 5797 5786 5775 5765 5759 5752 5744 5737 5728 5718 5708 5698 5684 5675 5663 5650 5638 5628 5620 5613 5606 5599 5594 5590 5588 5589 5589 5587 5585 5585 5586 5583 5576 5572 5567
5834 5827 5821 5818 5814 5809 5803 5792 5782 5773 5764 5759 5751 5741 5729 5722 5714 5705 5696 5685 5676 5667 5655 5642 5630 5622 5614 5607 5599 5592 5588 5584 5583 5584 5583 5582 5581 5581 5582 5581 5579 5574 5569
5822 5817 5811 5803 5796 5793 5789 5782 5772 5762 5755 5749 5741 5729 5719 5711 5702 5694 5685 5675 5666 5655 5643 5632 5623 5615 5608 5599 5593 5589 5583 5581 5578 5578 5578 5578 5580 5580 5579 5576 5573 5572 5571
5810 5801 5793 5786 5780 5772 5762 5760 5758 5753 5755 5746 5735 5726 5714 5701 5693 5688 5678 5668 5659 5648 5637 5626 5617 5609 5603 5595 5587 5583 5580 5580 5577 5575 5576 5577 5577 5576 5575 5574 5571 5568 5567
5797 5789 5781 5775 5771 5767 5759 5749 5740 5740 5740 5736 5729 5723 5708 5698 5687 5678 5670 5661 5650 5640 5632 5621 5610 5602 5596 5591 5583 5581 5577 5574 5572 5571 5572 5572 5572 5571 5572 5571 5568 5566 5561
5791 5782 5774 5769 5764 5759 5753 5747 5738 5725 5722 5717 5712 5707 5702 5690 5677 5668 5662 5651 5642 5635 5625 5614 5604 5598 5591 5582 5577 5576 5573 5568 5567 5568 5568 5568 5568 5567 5566 5564 5564 5562 5559
5783 5775 5770 5763 5758 5752 5746 5741 5737 5731 5720 5708 5696 5690 5685 5679 5671 5662 5654 5646 5636 5625 5617 5607 5598 5592 5585 5581 5575 5571 5570 5567 5566 5564 5563 5562 5562 5561 5560 5558 5558 5556 5554
5777 5770 5762 5756 5750 5743 5738 5734 5728 5720 5710 5697 5687 5677 5670 5667 5660 5653 5649 5641 5630 5619 5609 5601 5594 5589 5583 5577 5573 5567 5566 5563 5560 5559 5557 5557 5556 5556 5555 5553 5552 5547 5548
5764 5758 5754 5748 5740 5734 5730 5725 5717 5709 5701 5694 5687 5676 5666 5663 5658 5648 5638 5630 5622 5613 5603 5597 5589 5583 5579 5575 5569 5565 5562 5559 5556 5554 5552 5552 5551 5549 5549 5549 5548 5545 5541
5754 5748 5744 5738 5732 5729 5724 5718 5710 5703 5695 5688 5680 5671 5665 5662 5651 5642 5631 5622 5615 5606 5598 5593 5586 5579 5574 5569 5566 5563 5559 5555 5550 5548 5547 5546 5545 5545 5543 5542 5542 5539 5537
5745 5739 5735 5731 5726 5720 5714 5708 5703 5695 5688 5681 5670 5661 5654 5650 5641 5633 5625 5616 5608 5600 5594 5589 5583 5577 5574 5570 5561 5558 5555 5551 5547 5544 5542 5541 5540 5538 5537 5537 5536 5533 5531
5736 5729 5724 5720 5716 5708 5704 5697 5692 5686 5680 5672 5664 5655 5647 5641 5633 5626 5618 5610 5602 5595 5588 5584 5578 5571 5566 5563 5559 5554 5552 5547 5542 5539 5538 5537 5535 5534 5532 5531 5530 5529 5525
5728 5723 5717 5709 5703 5698 5694 5688 5682 5675 5671 5662 5655 5649 5640 5633 5628 5618 5611 5603 5597 5590 5584 5578 5572 5567 5562 5556 5553 5550 5545 5543 5540 5536 5534 5534 5532 5530 5528 5527 5525 5522 5520
5719 5715 5710 5704 5695 5690 5684 5679 5674 5670 5662 5654 5647 5642 5633 5624 5620 5615 5606 5596 5590 5586 5578 5571 5568 5562 5557 5556 5552 5548 5545 5541 5539 5537 5534 5533 5530 5528 5526 5523 5520 5517 5515
5708 5706 5703 5698 5694 5686 5682 5673 5666 5662 5654 5646 5639 5634 5627 5622 5615 5608 5597 5590 5585 5578 5572 5567 5562 5558 5556 5551 5549 5546 5545 5541 5538 5537 5535 5533 5530 5527 5525 5522 5518 5515 5511